This demonstration page uses our WeatherBlox Daily Observations layout. Learn more.

Left ArrowRight Arrow

Hourly Observations for November 9, 2021

Temp ( °F °C ) Dew Point ( °F °C ) Humidity (%) Winds ( mph kmh ) Pressure ( in mb ) Visibility ( mi km ) Precip ( " mm )
12:53 am 00:53 Clear 41 5 40 4.4 96 96 Calm 30.27 1025 10 16 0.00 0.00
1:53 am 01:53 Clear 42 5.6 39 3.9 89 89 Calm 30.27 1025 10 16 0.00 0.00
2:53 am 02:53 Clear 41 5 39 3.9 93 93 Calm 30.28 1025 10 16 0.00 0.00
3:53 am 03:53 Clear 40 4.4 38 3.3 93 93 Calm 30.28 1026 10 16 0.00 0.00
4:53 am 04:53 Clear 38 3.3 37 2.8 97 97 Calm 30.29 1026 10 16 0.00 0.00
5:53 am 05:53 Clear 38 3.3 36 2.2 93 93 Calm 30.30 1026 10 16 0.00 0.00
6:53 am 06:53 Clear with Light Rain 37 2.8 36 2.2 96 96 Calm 30.31 1026 5 8 0.00 0.00
7:53 am 07:53 Sunny with Light Rain 39 3.9 38 3.3 96 96 Calm 30.32 1027 10 16 0.00 0.00
8:53 am 08:53 Sunny 47 8.3 43 6.1 86 86 Calm 30.33 1027 10 16 0.00 0.00
9:53 am 09:53 Sunny 56 13.3 46 7.8 70 70 Calm 30.32 1027 10 16 0.00 0.00
10:53 am 10:53 Sunny 64 17.8 45 7.2 50 50 Calm 30.31 1026 10 16 0.00 0.00
11:53 am 11:53 Sunny 70 21.1 45 7.2 41 41 VRB 3 6 30.29 1026 10 16 0.00 0.00
12:53 pm 12:53 Sunny 73 22.8 39 3.9 29 29 VRB 3 6 30.25 1025 10 16 0.00 0.00
1:53 pm 13:53 Sunny 74 23.3 38 3.3 27 27 S 3 6 30.22 1024 10 16 0.00 0.00
2:53 pm 14:53 Sunny 76 24.4 40 4.4 27 27 SSW 5 7 30.21 1023 10 16 0.00 0.00
3:53 pm 15:53 Sunny 76 24.4 38 3.3 25 25 SSW 6 9 30.19 1022 10 16 0.00 0.00
4:53 pm 16:53 Sunny 74 23.3 39 3.9 28 28 S 3 6 30.19 1022 10 16 0.00 0.00
5:53 pm 17:53 Clear 63 17.2 46 7.8 54 54 Calm 30.19 1022 10 16 0.00 0.00
6:53 pm 18:53 Clear 58 14.4 47 8.3 67 67 Calm 30.20 1023 10 16 0.00 0.00
7:53 pm 19:53 Clear 55 12.8 47 8.3 74 74 Calm 30.21 1023 10 16 0.00 0.00
8:53 pm 20:53 Clear 53 11.7 48 8.9 83 83 Calm 30.21 1023 10 16 0.00 0.00
9:53 pm 21:53 Clear 50 10 46 7.8 86 86 Calm 30.20 1023 10 16 0.00 0.00
10:53 pm 22:53 Clear 49 9.4 45 7.2 86 86 Calm 30.20 1023 10 16 0.00 0.00
11:53 pm 23:53 Clear 49 9.4 45 7.2 86 86 Calm 30.20 1023 10 16 0.00 0.00

Powered by AerisWeather